Flag for U.S.A. Weather past 2 weeks in Santa Cruz, California, U.S.A.

Now
54 °F

Clear.


Feels Like: 53 °F
Forecast: 57 / 71 °F
Wind: 5 mph from Northwest

Location: Watsonville Municipal Airport

Current Time: Oct 23, 2014 at 5:49:29 AM

Latest Report: Oct 23, 2014 at 4:53 AM


Visibility: 10 mi

Pressure: 30.02 "Hg

Humidity: 80%

Dew point: 48 °F

Location of Santa CruzLocation

Historic Weather in Santa Cruz — Graph

°F

Santa Cruz temperature yesterday

Maximum temperature yesterday: 78 °F (at 2:53 PM)
Minimum temperature yesterday: 50 °F (at 5:53 AM)
Average temperature yesterday: 63 °F

Past Weeks' High & Low Weather Summary

 TemperatureHumidityPressure
High90 °F (Oct 12, 12:53 PM)100% (Oct 15, 8:53 AM)30.11 "Hg (Oct 15, 8:53 AM)
Low50 °F (Oct 21, 6:53 AM)14% (Oct 12, 2:53 PM)29.85 "Hg (Oct 14, 5:53 PM)
Average63 °F71%29.97 "Hg
* Reported Oct 8 4:53 AM — Oct 23 4:53 AM, Santa Cruz, Weather by CustomWeather, © 2014

Note: Actual official high and low records may vary slightly from our data, if they occured in-between our weather recording intervals... More about our weather records

Advertising

Santa Cruz weather history for previous 24 hours

 ConditionsComfort  
Time TempWeatherWind HumidityBarometerVisibility
4:53 AM
Oct 23
54 °FClear.5 mph80%30.02 "Hg10 mi
3:53 AM55 °FClear.5 mph77%30.02 "Hg10 mi
2:53 AM56 °FClear.5 mph77%30.02 "Hg10 mi
1:53 AM57 °FClear.6 mph74%30.03 "Hg10 mi
12:53 AM58 °FClear.6 mph75%30.03 "Hg10 mi
11:53 PM
Oct 22
60 °FClear.6 mph67%30.03 "Hg10 mi
10:53 PM61 °FClear.No wind78%30.05 "Hg10 mi
9:53 PM62 °FClear.3 mph75%30.04 "Hg10 mi
8:53 PM63 °FClear.No wind78%30.03 "Hg10 mi
7:53 PM66 °FClear.No wind59%30.02 "Hg10 mi
6:53 PM70 °FSunny.No wind39%30.01 "Hg10 mi
5:53 PM74 °FSunny.3 mph28%30.00 "Hg10 mi
4:53 PM76 °FSunny.5 mph31%30.00 "Hg10 mi
3:53 PM77 °FSunny.9 mph31%30.00 "Hg10 mi
2:53 PM78 °FSunny.8 mph31%30.00 "Hg10 mi
1:53 PM76 °FSunny.8 mph36%30.03 "Hg10 mi
12:53 PM73 °FSunny.6 mph41%30.05 "HgN/A
11:53 AM71 °FSunny.7 mph45%30.08 "Hg10 mi
10:53 AM68 °FSunny.No wind53%30.07 "Hg10 mi
9:53 AM62 °FSunny.3 mph65%30.07 "Hg10 mi
8:53 AM57 °FSunny.No wind74%30.06 "Hg10 mi
7:53 AM51 °FClear.5 mph83%30.04 "Hg10 mi
6:53 AM50 °FClear.3 mph86%30.04 "Hg10 mi
5:53 AM50 °FClear.No wind86%30.03 "Hg10 mi
Weather by CustomWeather, © 2014

See weather overviewHow to use our weather pages